Location: Vihti�l�
(61.3833°N, 23.0667°E)
Time: 05:45:01
(UTC+00:00)

Cosmos 909 Rocket - Pass Details

Date: 29 November 2020
Orbit: 992 x 2087 km, 65.9° (Epoch: 22 January)

Event Time Altitude Azimuth Distance (km) Brightness Sun altitude
Exits shadow 03:49:35 36° 306° (NW) 1,554 4.6 -21.9°
Maximum altitude 03:52:15 66° 16° (NNE) 1,087 4.2 -21.6°
Drops below altitude 10° 03:58:33 10° 99° (E) 2,794 7.6 -20.9°
Sets 04:01:12 0° 103° (ESE) 3,797 8.7 -20.6°
